When you browse on this site, cookies collect data to enhance your experience and personalize the content and advertising you see.
Visit our Privacy Policy to learn more. By continuing to use the site, you agree to this use of cookies and data.
EN

Hourly Weather Nicastro

Today, 10 July, Friday

Time Temperature Precipitation Wind Pressure Humidity
00:00 +21°C° 0 mm 1 mps 729 mmHg 68%
01:00 +21°C° 0 mm 1 mps 729 mmHg 65%
02:00 +21°C° 0 mm 1 mps 728 mmHg 64%
03:00 +21°C° 0 mm 1 mps 728 mmHg 63%
04:00 +21°C° 0 mm 1 mps 728 mmHg 62%
05:00 +22°C° 0 mm 1 mps 728 mmHg 58%
06:00 +24°C° 0 mm 1 mps 728 mmHg 54%
07:00 +24°C° 0 mm 0 mps 728 mmHg 50%
08:00 +27°C° 0 mm 1 mps 729 mmHg 46%
09:00 +29°C° 0 mm 1 mps 729 mmHg 42%
10:00 +30°C° 0 mm 2 mps 729 mmHg 39%
11:00 +30°C° 0 mm 2 mps 729 mmHg 39%
12:00 +31°C° 0 mm 2 mps 729 mmHg 40%
13:00 +31°C° 0 mm 3 mps 729 mmHg 41%
14:00 +30°C° 0 mm 3 mps 729 mmHg 43%
15:00 +30°C° 0 mm 2 mps 728 mmHg 45%
16:00 +29°C° 0 mm 2 mps 728 mmHg 47%
17:00 +28°C° 0 mm 2 mps 728 mmHg 57%
18:00 +26°C° 0 mm 1 mps 728 mmHg 66%
19:00 +24°C° 0 mm 1 mps 728 mmHg 75%
20:00 +23°C° 0 mm 1 mps 728 mmHg 74%
21:00 +23°C° 0 mm 1 mps 728 mmHg 74%
22:00 +22°C° 0 mm 1 mps 728 mmHg 73%
23:00 +22°C° 0 mm 1 mps 728 mmHg 73%

Tomorrow, 11 July, Saturday

Time Temperature Precipitation Wind Pressure Humidity
00:00 +22°C° 0 mm 1 mps 728 mmHg 73%
01:00 +21°C° 0 mm 1 mps 728 mmHg 74%
02:00 +21°C° 0 mm 1 mps 727 mmHg 73%
03:00 +21°C° 0 mm 1 mps 727 mmHg 73%
04:00 +21°C° 0 mm 1 mps 727 mmHg 72%
05:00 +23°C° 0 mm 1 mps 727 mmHg 68%
06:00 +24°C° 0 mm 1 mps 727 mmHg 65%
07:00 +26°C° 0 mm 1 mps 728 mmHg 61%
08:00 +27°C° 0 mm 1 mps 728 mmHg 57%
09:00 +28°C° 0 mm 2 mps 728 mmHg 53%
10:00 +30°C° 0 mm 2 mps 728 mmHg 50%
11:00 +30°C° 0 mm 3 mps 728 mmHg 50%
12:00 +30°C° 0 mm 3 mps 728 mmHg 50%
13:00 +31°C° 0 mm 3 mps 728 mmHg 50%
14:00 +30°C° 0 mm 3 mps 728 mmHg 52%
15:00 +30°C° 0 mm 3 mps 727 mmHg 54%
16:00 +29°C° 0 mm 3 mps 727 mmHg 56%
17:00 +27°C° 0 mm 3 mps 727 mmHg 63%
18:00 +26°C° 0 mm 2 mps 727 mmHg 71%
19:00 +24°C° 0 mm 1 mps 727 mmHg 78%
20:00 +24°C° 0 mm 2 mps 727 mmHg 77%
21:00 +23°C° 0 mm 2 mps 727 mmHg 77%
22:00 +21°C° 0 mm 2 mps 727 mmHg 76%
23:00 +21°C° 0 mm 2 mps 727 mmHg 74%

Day after tomorrow, 12 July, Sunday

Time Temperature Precipitation Wind Pressure Humidity
00:00 +21°C° 0 mm 2 mps 727 mmHg 73%
01:00 +21°C° 0 mm 2 mps 726 mmHg 71%
02:00 +21°C° 0 mm 2 mps 727 mmHg 72%
03:00 +21°C° 0 mm 2 mps 727 mmHg 73%
04:00 +20°C° 0 mm 2 mps 727 mmHg 74%
05:00 +23°C° 0 mm 2 mps 727 mmHg 72%
06:00 +24°C° 0 mm 2 mps 727 mmHg 70%
07:00 +26°C° 0 mm 2 mps 728 mmHg 68%
08:00 +27°C° 0 mm 2 mps 728 mmHg 63%
09:00 +29°C° 0 mm 2 mps 728 mmHg 58%
10:00 +30°C° 0 mm 2 mps 728 mmHg 54%
11:00 +30°C° 0.1 mm 2 mps 729 mmHg 54%
12:00 +31°C° 0.1 mm 2 mps 729 mmHg 54%
13:00 +31°C° 0.1 mm 2 mps 729 mmHg 55%
14:00 +30°C° 0.2 mm 2 mps 728 mmHg 57%
15:00 +30°C° 0.2 mm 2 mps 728 mmHg 60%
16:00 +29°C° 0.2 mm 2 mps 728 mmHg 62%
17:00 +28°C° 0.1 mm 2 mps 728 mmHg 69%
18:00 +26°C° 0.1 mm 1 mps 728 mmHg 76%
19:00 +24°C° 0.1 mm 1 mps 728 mmHg 83%
20:00 +24°C° 0 mm 1 mps 728 mmHg 83%
21:00 +23°C° 0 mm 1 mps 728 mmHg 84%
22:00 +22°C° 0 mm 1 mps 729 mmHg 85%
23:00 +22°C° 0 mm 1 mps 728 mmHg 84%

13 July, Monday

Time Temperature Precipitation Wind Pressure Humidity
00:00 +22°C° 0 mm 1 mps 728 mmHg 83%
01:00 +21°C° 0 mm 1 mps 728 mmHg 82%
02:00 +21°C° 0 mm 1 mps 727 mmHg 82%
03:00 +21°C° 0 mm 1 mps 727 mmHg 82%
04:00 +21°C° 0 mm 1 mps 727 mmHg 83%
05:00 +23°C° 0 mm 1 mps 727 mmHg 77%
06:00 +24°C° 0 mm 1 mps 727 mmHg 72%
07:00 +26°C° 0 mm 1 mps 728 mmHg 67%
08:00 +27°C° 0 mm 1 mps 728 mmHg 62%
09:00 +29°C° 0 mm 1 mps 728 mmHg 57%
10:00 +30°C° 0 mm 2 mps 729 mmHg 52%
11:00 +30°C° 0.1 mm 2 mps 728 mmHg 53%
12:00 +30°C° 0.1 mm 2 mps 728 mmHg 53%
13:00 +30°C° 0.1 mm 3 mps 728 mmHg 53%
14:00 +30°C° 0.1 mm 2 mps 728 mmHg 54%
15:00 +29°C° 0.1 mm 2 mps 727 mmHg 54%
16:00 +29°C° 0.1 mm 2 mps 727 mmHg 55%
17:00 +27°C° 0 mm 1 mps 727 mmHg 63%
18:00 +26°C° 0 mm 1 mps 727 mmHg 71%
19:00 +24°C° 0 mm 1 mps 727 mmHg 78%
20:00 +23°C° 0 mm 1 mps 727 mmHg 79%
21:00 +22°C° 0 mm 1 mps 727 mmHg 80%
22:00 +21°C° 0 mm 1 mps 727 mmHg 81%
23:00 +21°C° 0 mm 1 mps 727 mmHg 81%

14 July, Tuesday

Time Temperature Precipitation Wind Pressure Humidity
00:00 +21°C° 0 mm 1 mps 727 mmHg 80%
01:00 +21°C° 0 mm 1 mps 727 mmHg 80%
02:00 +21°C° 0 mm 1 mps 726 mmHg 80%
03:00 +20°C° 0 mm 1 mps 726 mmHg 81%
04:00 +20°C° 0 mm 1 mps 726 mmHg 81%
05:00 +22°C° 0 mm 1 mps 726 mmHg 76%
06:00 +23°C° 0 mm 1 mps 727 mmHg 70%
07:00 +25°C° 0 mm 1 mps 727 mmHg 64%
08:00 +26°C° 0 mm 1 mps 727 mmHg 59%
09:00 +28°C° 0 mm 2 mps 728 mmHg 55%
10:00 +29°C° 0 mm 2 mps 728 mmHg 50%
11:00 +29°C° 0.1 mm 2 mps 728 mmHg 50%
12:00 +29°C° 0.1 mm 2 mps 728 mmHg 51%
13:00 +29°C° 0.1 mm 2 mps 728 mmHg 51%
14:00 +29°C° 0.1 mm 2 mps 727 mmHg 53%
15:00 +28°C° 0.1 mm 2 mps 727 mmHg 54%
16:00 +28°C° 0.1 mm 2 mps 727 mmHg 56%
17:00 +26°C° 0 mm 1 mps 727 mmHg 64%
18:00 +25°C° 0 mm 1 mps 727 mmHg 71%
19:00 +21°C° 0 mm 0 mps 727 mmHg 79%
20:00 +22°C° 0 mm 1 mps 727 mmHg 81%
21:00 +22°C° 0 mm 1 mps 728 mmHg 82%
22:00 +21°C° 0 mm 1 mps 728 mmHg 83%
23:00 +21°C° 0 mm 1 mps 728 mmHg 83%

15 July, Wednesday

Time Temperature Precipitation Wind Pressure Humidity
00:00 +21°C° 0 mm 1 mps 728 mmHg 82%
01:00 +21°C° 0 mm 1 mps 728 mmHg 81%
02:00 +21°C° 0 mm 1 mps 728 mmHg 80%
03:00 +20°C° 0 mm 1 mps 728 mmHg 79%
04:00 +20°C° 0 mm 1 mps 728 mmHg 79%
05:00 +22°C° 0 mm 1 mps 728 mmHg 73%
06:00 +24°C° 0 mm 1 mps 729 mmHg 67%
07:00 +24°C° 0 mm 0 mps 729 mmHg 61%
08:00 +27°C° 0 mm 1 mps 729 mmHg 56%
09:00 +28°C° 0 mm 1 mps 730 mmHg 50%
10:00 +30°C° 0 mm 2 mps 730 mmHg 45%
11:00 +30°C° 0 mm 2 mps 730 mmHg 44%
12:00 +30°C° 0 mm 3 mps 730 mmHg 44%
13:00 +30°C° 0 mm 3 mps 730 mmHg 43%
14:00 +30°C° 0 mm 3 mps 729 mmHg 44%
15:00 +29°C° 0 mm 3 mps 729 mmHg 46%
16:00 +29°C° 0 mm 3 mps 729 mmHg 47%
17:00 +27°C° 0 mm 3 mps 729 mmHg 57%
18:00 +25°C° 0 mm 2 mps 729 mmHg 66%
19:00 +23°C° 0 mm 2 mps 728 mmHg 76%
20:00 +21°C° 0 mm 2 mps 729 mmHg 76%
21:00 +21°C° 0 mm 2 mps 729 mmHg 75%
22:00 +20°C° 0 mm 2 mps 729 mmHg 75%
23:00 +20°C° 0 mm 2 mps 729 mmHg 75%
Show more